Location: Steilacoom
(47.1700°N, 122.5700°W)
Time: 07:51:14
(UTC-08:00)

AO-85 - Visible Passes

Search period start: 18 January 2020 00:00
Search period end: 28 January 2020 00:00
Orbit: 518 x 765 km, 64.8° (Epoch: 15 January)

Date Brightness Start Highest point End Pass type
(mag) Time Alt. Az. Time Alt. Az. Time Alt. Az.
18 Jan ? 17:21:30 10° NW 17:25:27 87° NE 17:29:21 10° SE visible
19 Jan ? 17:46:16 10° NW 17:49:53 37° WSW 17:53:30 10° S visible
20 Jan ? 18:11:47 10° WNW 18:14:08 15° WSW 18:16:28 10° SSW visible
22 Jan ? 07:12:08 10° SSE 07:15:31 20° ESE 07:18:44 10° ENE visible
24 Jan ? 06:22:10 10° SE 06:24:29 14° ESE 06:26:44 10° E visible
25 Jan ? 06:44:42 10° S 06:48:44 30° ESE 06:52:32 10° ENE visible
27 Jan ? 05:54:14 10° SSE 05:57:39 21° ESE 06:00:55 10° ENE visible
